Weather History for Grand Marais Airport, MN

Change the Weather History Date:

Friday, November 18, 2011

  Actual Average Record
Temperature  
Mean Temperature 16 °F -  
Max Temperature 21 °F 30 °F 51 °F (2001)
Min Temperature 10 °F 19 °F 1 °F (2014)
Degree Days  
Heating Degree Days 50    
Moisture  
Dew Point 13 °F    
Average Humidity 83    
Maximum Humidity 93    
Minimum Humidity 73    
Precipitation  
Precipitation 0.02 in - - ()
Sea Level Pressure  
Sea Level Pressure 29.75 in    
Wind  
Wind Speed 5 mph (NNE)    
Max Wind Speed 12 mph    
Max Gust Speed 16 mph    
Visibility 6 miles    
Events Snow    
Averages and records for this station are not official NWS values.
T = Trace of Precipitation, MM = Missing Value Source: NWS Daily Summary

Daily Weather History Graph

Daily Weather History Graph

Search for Another Location

Airport:

Trip Planner

Search our weather history database for the weather conditions in past years. The results will help you decide how hot, cold, wet, or windy it might be!

Date:

Astronomy

Nov. 18, 2011 Rise Set
Actual Time 7:11 AM CST 4:21 PM CST
Civil Twilight 6:37 AM CST 4:55 PM CST
Nautical Twilight 5:59 AM CST 5:33 PM CST
Astronomical Twilight 5:22 AM CST 6:09 PM CST
Moon No Moon Rise 12:37 PM CST (11/18)
Length of Visible Light 10h 17m
Length of Day
9h 09m
Waning Gibbous, 49% of the Moon is Illuminated
Nov 18
Waning Gibbous
Nov 25
New
Dec 2
First Quarter
Dec 10
Full
Dec 17
Last Quarter

Hourly Weather History & Observations

Time (CST) Temp. Windchill Dew Point Humidity Pressure Visibility Wind Dir Wind Speed Gust Speed Precip Events Conditions
12:13 AM 10.4 °F 4.0 °F 6.8 °F 85% 29.89 in 10.0 mi NNW 3.5 mph - N/A   Mostly Cloudy
12:34 AM 12.2 °F - 6.8 °F 79% 29.88 in 10.0 mi Calm Calm - N/A   Overcast
12:54 AM 12.2 °F - 6.8 °F 79% 29.89 in 10.0 mi Calm Calm - N/A   Overcast
1:13 AM 12.2 °F - 8.6 °F 85% 29.89 in 10.0 mi Calm Calm - N/A   Overcast
1:34 AM 14.0 °F 6.5 °F 8.6 °F 79% 29.88 in 10.0 mi NNW 4.6 mph - N/A   Overcast
1:53 AM 14.0 °F 8.2 °F 8.6 °F 79% 29.88 in 10.0 mi North 3.5 mph - N/A   Overcast
2:34 AM 14.0 °F 6.5 °F 8.6 °F 79% 29.85 in 10.0 mi North 4.6 mph - N/A   Overcast
2:53 AM 15.8 °F 10.2 °F 8.6 °F 73% 29.83 in 10.0 mi NNE 3.5 mph - N/A   Overcast
3:14 AM 15.8 °F 10.2 °F 8.6 °F 73% 29.82 in 10.0 mi NNE 3.5 mph - N/A   Overcast
3:23 AM 15.8 °F - 8.6 °F 73% 29.82 in 7.0 mi Calm Calm - N/A Snow Light Snow
3:54 AM 15.8 °F 10.2 °F 10.4 °F 79% 29.82 in 2.5 mi NNE 3.5 mph - N/A Snow Light Snow
4:14 AM 15.8 °F 7.2 °F 10.4 °F 79% 29.81 in 1.2 mi NNE 5.8 mph - N/A Snow Light Snow
4:33 AM 15.8 °F 8.6 °F 10.4 °F 79% 29.80 in 1.0 mi NE 4.6 mph - N/A Snow Snow
4:54 AM 15.8 °F 7.2 °F 10.4 °F 79% 29.80 in 1.0 mi NE 5.8 mph - N/A Snow Snow
5:13 AM 15.8 °F 7.2 °F 10.4 °F 79% 29.80 in 1.5 mi NNE 5.8 mph - N/A Snow Light Snow
5:34 AM 15.8 °F 7.2 °F 12.2 °F 86% 29.79 in 1.0 mi ENE 5.8 mph - N/A Snow Snow
5:54 AM 15.8 °F 5.1 °F 12.2 °F 86% 29.78 in 1.0 mi NE 8.1 mph - N/A Snow Snow
6:14 AM 17.6 °F 9.3 °F 12.2 °F 79% 29.78 in 1.5 mi NE 5.8 mph - 0.01 in Snow Light Snow
6:33 AM 17.6 °F 8.2 °F 12.2 °F 79% 29.78 in 3.0 mi NE 6.9 mph - 0.01 in Snow Light Snow
6:54 AM 17.6 °F 8.2 °F 12.2 °F 79% 29.77 in 3.0 mi ENE 6.9 mph - 0.01 in Snow Light Snow
6:55 AM 17.6 °F 7.3 °F 12.2 °F 79% 29.77 in 3.0 mi ENE 8.1 mph - 0.01 in Snow Light Snow
7:13 AM 17.6 °F 7.3 °F 12.2 °F 79% 29.76 in 5.0 mi NE 8.1 mph - N/A Snow Light Snow
7:34 AM 17.6 °F 7.3 °F 12.2 °F 79% 29.76 in 7.0 mi NE 8.1 mph - N/A Snow Light Snow
7:54 AM 17.6 °F 6.4 °F 12.2 °F 79% 29.75 in 10.0 mi NE 9.2 mph - 0.01 in Snow Light Snow
7:55 AM 17.6 °F 6.4 °F 12.2 °F 79% 29.75 in 10.0 mi NE 9.2 mph - 0.01 in Snow Light Snow
8:13 AM 17.6 °F 8.2 °F 12.2 °F 79% 29.76 in 10.0 mi NE 6.9 mph - N/A   Overcast
8:34 AM 17.6 °F 7.3 °F 14.0 °F 86% 29.76 in 10.0 mi NNE 8.1 mph - N/A Snow Light Snow
8:54 AM 17.6 °F 6.4 °F 14.0 °F 86% 29.74 in 10.0 mi NNE 9.2 mph - N/A   Overcast
9:13 AM 17.6 °F 5.7 °F 14.0 °F 86% 29.75 in 10.0 mi NNE 10.4 mph - N/A   Overcast
9:33 AM 17.6 °F 7.3 °F 14.0 °F 86% 29.75 in 10.0 mi NE 8.1 mph - N/A   Overcast
9:54 AM 19.4 °F 8.6 °F 14.0 °F 80% 29.74 in 10.0 mi NNE 9.2 mph - N/A   Overcast
10:13 AM 19.4 °F 9.5 °F 15.8 °F 86% 29.73 in 10.0 mi NNE 8.1 mph - N/A   Overcast
10:33 AM 19.4 °F 8.6 °F 15.8 °F 86% 29.72 in 10.0 mi NNE 9.2 mph - N/A   Overcast
10:54 AM 19.4 °F 7.2 °F 15.8 °F 86% 29.71 in 10.0 mi NNE 11.5 mph - N/A   Overcast
11:34 AM 19.4 °F 8.6 °F 15.8 °F 86% 29.71 in 10.0 mi NNE 9.2 mph - N/A   Overcast
11:53 AM 19.4 °F 7.2 °F 15.8 °F 86% 29.70 in 10.0 mi NNE 11.5 mph - N/A   Overcast
12:14 PM 19.4 °F 9.5 °F 15.8 °F 86% 29.69 in 7.0 mi NNE 8.1 mph - N/A   Overcast
12:33 PM 19.4 °F 7.2 °F 15.8 °F 86% 29.68 in 10.0 mi NNE 11.5 mph - N/A   Overcast
12:53 PM 19.4 °F 8.6 °F 17.6 °F 93% 29.67 in 10.0 mi NNE 9.2 mph - N/A   Overcast
1:34 PM 19.4 °F 7.9 °F 17.6 °F 93% 29.68 in 10.0 mi NNE 10.4 mph 16.1 mph N/A   Overcast
1:53 PM 19.4 °F 8.6 °F 17.6 °F 93% 29.68 in 10.0 mi NNE 9.2 mph - N/A   Overcast
2:14 PM 19.4 °F 9.5 °F 17.6 °F 93% 29.68 in 2.5 mi NNE 8.1 mph - N/A Snow Light Snow
2:53 PM 21.2 °F 10.9 °F 17.6 °F 86% 29.68 in 1.2 mi NNE 9.2 mph - N/A Snow Light Snow
3:14 PM 21.2 °F 11.7 °F 17.6 °F 86% 29.68 in 0.5 mi NNE 8.1 mph - N/A Snow Snow
3:34 PM 19.4 °F 9.5 °F 15.8 °F 86% 29.68 in 0.8 mi NNE 8.1 mph - N/A Snow Light Snow
3:54 PM 19.4 °F 8.6 °F 15.8 °F 86% 29.68 in 0.8 mi NNE 9.2 mph - N/A Snow Light Snow
4:14 PM 19.4 °F 8.6 °F 15.8 °F 86% 29.68 in 0.8 mi NNE 9.2 mph - N/A Snow Light Snow
4:33 PM 19.4 °F 8.6 °F 15.8 °F 86% 29.68 in 1.0 mi NNE 9.2 mph - N/A Snow Light Snow
4:53 PM 19.4 °F 9.5 °F 15.8 °F 86% 29.68 in 1.0 mi NNE 8.1 mph - N/A Snow Light Snow
5:14 PM 19.4 °F 8.6 °F 15.8 °F 86% 29.67 in 1.0 mi NNE 9.2 mph - N/A Snow Light Snow
5:34 PM 19.4 °F 10.4 °F 15.8 °F 86% 29.69 in 1.5 mi NNE 6.9 mph - N/A Snow Light Snow
5:53 PM 19.4 °F 10.4 °F 15.8 °F 86% 29.68 in 0.8 mi NNE 6.9 mph - N/A Snow Light Snow
6:14 PM 21.2 °F 13.6 °F 17.6 °F 86% 29.70 in 1.0 mi North 5.8 mph - N/A Snow Light Snow
6:34 PM 21.2 °F 13.6 °F 17.6 °F 86% 29.69 in 4.0 mi NNE 5.8 mph - N/A Snow Light Snow
6:53 PM 21.2 °F 12.6 °F 17.6 °F 86% 29.69 in 1.0 mi NNE 6.9 mph - N/A Snow Light Snow
7:14 PM 21.2 °F 12.6 °F 17.6 °F 86% 29.69 in 1.2 mi NNE 6.9 mph - N/A Snow Light Snow
7:33 PM 21.2 °F 12.6 °F 17.6 °F 86% 29.68 in 1.2 mi NNE 6.9 mph - N/A Snow Light Snow
7:54 PM 21.2 °F 12.6 °F 17.6 °F 86% 29.68 in 2.5 mi NNE 6.9 mph - N/A Snow Light Snow
8:14 PM 21.2 °F 13.6 °F 17.6 °F 86% 29.69 in 4.0 mi NNE 5.8 mph - N/A Snow Light Snow
8:54 PM 21.2 °F 13.6 °F 17.6 °F 86% 29.68 in 5.0 mi NNE 5.8 mph - 0.01 in Snow Light Snow
8:55 PM 21.2 °F 13.6 °F 17.6 °F 86% 29.68 in 5.0 mi NNE 5.8 mph - 0.01 in Snow Light Snow
9:14 PM 21.2 °F 14.9 °F 17.6 °F 86% 29.68 in 3.0 mi NNE 4.6 mph - 0.01 in Snow Light Snow
9:33 PM 21.2 °F 13.6 °F 17.6 °F 86% 29.67 in 4.0 mi North 5.8 mph - 0.01 in   Overcast
9:53 PM 21.2 °F 16.4 °F 17.6 °F 86% 29.68 in 5.0 mi NNE 3.5 mph - 0.02 in Snow Light Snow
9:55 PM 21.2 °F 14.9 °F 17.6 °F 86% 29.68 in 5.0 mi NE 4.6 mph - 0.02 in Snow Light Snow
10:14 PM 21.2 °F 16.4 °F 19.4 °F 93% 29.68 in 2.0 mi NNE 3.5 mph - N/A Snow Light Snow
10:33 PM 21.2 °F 16.4 °F 19.4 °F 93% 29.68 in 3.0 mi NE 3.5 mph - N/A Snow Light Snow
10:53 PM 23.0 °F 17.0 °F 19.4 °F 86% 29.67 in 1.8 mi NE 4.6 mph - N/A   Overcast
11:14 PM 23.0 °F 15.8 °F 19.4 °F 86% 29.66 in 3.0 mi NNE 5.8 mph - 0.01 in   Overcast
11:33 PM 23.0 °F 15.8 °F 19.4 °F 86% 29.66 in 7.0 mi NNE 5.8 mph - 0.01 in   Overcast
11:54 PM 23.0 °F 17.0 °F 19.4 °F 86% 29.67 in 10.0 mi North 4.6 mph - 0.02 in   Overcast
11:55 PM 23.0 °F 17.0 °F 19.4 °F 86% 29.68 in 10.0 mi North 4.6 mph - 0.02 in   Overcast